Location: Brede
(50.9167°N, 0.6000°E)
Time: 03:17:14
(UTC+00:00)

X-37B - Pass Details

Date: 01 November 2020
Orbit: 384 x 390 km, 45.0° (Epoch: 26 November)

Event Time Altitude Azimuth Distance (km) Brightness Sun altitude
Rises 05:57:24 0° 205° (SSW) 2,262 4.3 -8.8°
Reaches altitude 10° 06:01:00 10° 163° (SSE) 1,410 3.8 -8.2°
Maximum altitude 06:01:36 10° 152° (SSE) 1,386 4.0 -8.1°
Drops below altitude 10° 06:02:14 10° 140° (SE) 1,411 4.3 -8.0°
Sets 06:05:49 0° 98° (E) 2,267 6.9 -7.5°
